Location: Sternwarte auf dem Internationalen Platz Vogelsang IP
(50.5721°N, 6.4398°E)
Time: 03:05:26
(UTC+01:00)

Explorer 7 - Visible Passes

Search period start: 05 December 2025 00:00
Search period end: 15 December 2025 00:00
Orbit: 436 x 554 km, 50.3° (Epoch: 04 December)

Date Brightness Start Highest point End Pass type
(mag) Time Alt. Az. Time Alt. Az. Time Alt. Az.
09 Dec 9.4 19:33:55 10° SSW 19:33:58 10° SSW 19:33:58 10° SSW visible
10 Dec 8.7 19:10:28 10° SSW 19:11:43 18° SSW 19:11:43 18° SSW visible
11 Dec 7.9 18:46:57 10° SSW 18:49:22 26° S 18:49:22 26° S visible
12 Dec 7.6 18:23:24 10° SSW 18:26:28 28° SSE 18:26:55 27° SE visible
12 Dec 9.8 20:01:13 10° WSW 20:01:25 11° WSW 20:01:25 11° WSW visible
13 Dec 7.7 17:59:48 10° SSW 18:02:52 28° SSE 18:04:22 20° ESE visible
13 Dec 8.9 19:37:37 10° WSW 19:38:52 21° WSW 19:38:52 21° WSW visible
14 Dec 7.8 17:36:10 10° SSW 17:39:14 28° SSE 17:41:46 13° E visible
14 Dec 7.8 19:13:58 10° WSW 19:16:15 37° WSW 19:16:15 37° WSW visible
